This is the latest recevied weather packets stored in our database for station/object KE4EST. If no packets are shown the sender has not sent any weather packets the latest 10 day(s).
| Time | Temp. | Humidity | Pressure | Rain* | Wind** | Luminosity | Snow |
|---|---|---|---|---|---|---|---|
| 1777572495 | 19.44° C | 51% | 1012.7 hPa | 0 mm | - | 668 W/m² | - |
| 1777572185 | 20° C | 55% | 1012.8 hPa | 0 mm | - | 711 W/m² | - |
| 1777571880 | 18.89° C | 52% | 1012.8 hPa | 0 mm | - | 695 W/m² | - |
| 1777571576 | 18.89° C | 55% | 1012.8 hPa | 0 mm | - | 715 W/m² | - |
| 1777571273 | 19.44° C | 52% | 1012.9 hPa | 0 mm | - | 710 W/m² | - |
| 1777570969 | 18.89° C | 54% | 1013 hPa | 0 mm | - | 712 W/m² | - |
| 1777570665 | 18.33° C | 60% | 1012.9 hPa | 0 mm | - | 627 W/m² | - |
| 1777570362 | 18.89° C | 55% | 1013.1 hPa | 0 mm | - | 547 W/m² | - |
| 1777570057 | 18.89° C | 60% | 1013.1 hPa | 0 mm | - | 713 W/m² | - |
| 1777569753 | 18.33° C | 58% | 1013.3 hPa | 0 mm | - | 520 W/m² | - |
| 1777569449 | 18.33° C | 59% | 1012.9 hPa | 0 mm | - | 623 W/m² | - |
| 1777569146 | 17.78° C | 63% | 1013.5 hPa | 0 mm | - | 534 W/m² | - |
| 1777568843 | 18.33° C | 66% | 1013.2 hPa | 0 mm | - | 222 W/m² | - |
| 1777568540 | 17.78° C | 61% | 1013.1 hPa | 0 mm | - | 219 W/m² | - |
| 1777568236 | 17.78° C | 59% | 1013.4 hPa | 0 mm | - | 245 W/m² | - |
| 1777567934 | 17.78° C | 59% | 1013.2 hPa | 0 mm | - | 210 W/m² | - |
| 1777567630 | 18.33° C | 63% | 1013.3 hPa | 0 mm | - | 227 W/m² | - |
| 1777567327 | 17.78° C | 71% | 1013.4 hPa | 0 mm | - | 226 W/m² | - |
| 1777567025 | 17.78° C | 61% | 1013.4 hPa | 0 mm | - | 235 W/m² | - |
| 1777566723 | 17.78° C | 62% | 1013.2 hPa | 0 mm | - | 214 W/m² | - |
| 1777566421 | 18.33° C | 64% | 1012.9 hPa | 0 mm | - | 215 W/m² | - |
| 1777566118 | 17.78° C | 66% | 1013.3 hPa | 0 mm | - | 189 W/m² | - |
| 1777565813 | 17.22° C | 70% | 1013.2 hPa | 0 mm | - | 198 W/m² | - |
| 1777565509 | 17.22° C | 66% | 1013.2 hPa | 0 mm | - | 254 W/m² | - |
| 1777565206 | 17.78° C | 67% | 1013.3 hPa | 0 mm | - | 311 W/m² | - |
* Rain latest hour (hover to see other rain measurements)
** Current wind speed in m/s (hover to see current wind gust speed)